| time (UTC) | temp F | wind direction | speed MPH | gust MPH | rain 1hr in | rain 24hr in | rain mn in | humidity % | barometer mb |
| 20260508073516 | 53 | 126 | 2.0 | 7.0 | 0.00 | 0.00 | 0.00 | 82 | 1016.5 |
| 20260508072517 | 52 | 26 | 3.0 | 5.0 | 0.00 | 0.00 | 0.00 | 84 | 1016.5 |
| 20260508071516 | 52 | 84 | 3.0 | 6.0 | 0.00 | 0.00 | 0.00 | 85 | 1016.5 |
| 20260508070518 | 51 | 99 | 3.0 | 6.0 | 0.00 | 0.00 | 0.00 | 87 | 1016.5 |
| 20260508065516 | 50 | 71 | 3.0 | 8.0 | 0.00 | 0.00 | 0.00 | 88 | 1016.6 |
| 20260508064536 | 49 | 105 | 2.0 | 6.0 | 0.00 | 0.00 | 0.00 | 89 | 1016.6 |
| 20260508063538 | 49 | 113 | 4.0 | 9.0 | 0.00 | 0.00 | 0.00 | 90 | 1016.6 |
| 20260508062515 | 48 | 101 | 4.0 | 8.0 | 0.00 | 0.00 | 0.00 | 91 | 1016.5 |
| 20260508061538 | 46 | 186 | 1.0 | 3.0 | 0.00 | 0.00 | 0.00 | 91 | 1016.4 |
| 20260508060516 | 45 | 186 | 2.0 | 3.0 | 0.00 | 0.00 | 0.00 | 91 | 1016.2 |
| 20260508055517 | 45 | 186 | 1.0 | 3.0 | 0.00 | 0.00 | 0.00 | 91 | 1016.1 |
| 20260508054536 | 44 | 186 | 1.0 | 2.0 | 0.00 | 0.00 | 0.00 | 91 | 1016.0 |
| 20260508053515 | 44 | 186 | 1.0 | 3.0 | 0.00 | 0.00 | 0.00 | 91 | 1016.0 |
| 20260508052515 | 43 | 183 | 3.0 | 4.0 | 0.00 | 0.00 | 0.00 | 91 | 1015.9 |
| 20260508051515 | 42 | 183 | 1.0 | 3.0 | 0.00 | 0.00 | 0.00 | 91 | 1015.9 |
| 20260508050515 | 41 | 101 | 2.0 | 3.0 | 0.00 | 0.00 | 0.00 | 90 | 1016.0 |
| 20260508045516 | 41 | 86 | 0.0 | 2.0 | 0.00 | 0.00 | 0.00 | 90 | 1015.8 |
| 20260508044516 | 40 | 0.0 | 0.0 | 0.00 | 0.00 | 0.00 | 90 | 1015.7 | |
| 20260508043516 | 40 | 0.0 | 0.0 | 0.00 | 0.00 | 0.00 | 90 | 1015.5 | |
| 20260508042515 | 40 | 0.0 | 0.0 | 0.00 | 0.00 | 0.00 | 90 | 1015.4 | |
| 20260508041515 | 40 | 0.0 | 0.0 | 0.00 | 0.00 | 0.00 | 90 | 1015.4 | |
| 20260508040515 | 40 | 0.0 | 0.0 | 0.00 | 0.00 | 0.00 | 90 | 1015.4 | |
| 20260508035516 | 40 | 0.0 | 0.0 | 0.00 | 0.00 | 0.00 | 90 | 1015.4 | |
| 20260508034516 | 40 | 0.0 | 0.0 | 0.00 | 0.00 | 0.00 | 90 | 1015.3 | |
| 20260508033517 | 41 | 0.0 | 0.0 | 0.00 | 0.00 | 0.00 | 90 | 1015.4 | |
| 20260508032516 | 41 | 83 | 1.0 | 2.0 | 0.00 | 0.00 | 0.00 | 90 | 1015.4 |
| 20260508031515 | 41 | 71 | 1.0 | 3.0 | 0.00 | 0.00 | 0.00 | 90 | 1015.3 |
| 20260508030516 | 41 | 59 | 0.0 | 1.0 | 0.00 | 0.00 | 0.00 | 89 | 1015.3 |
| 20260508025515 | 41 | 0.0 | 0.0 | 0.00 | 0.00 | 0.00 | 89 | 1015.3 | |
| 20260508024537 | 42 | 0.0 | 0.0 | 0.00 | 0.00 | 0.00 | 89 | 1015.3 | |
| 20260508023515 | 42 | 59 | 0.0 | 1.0 | 0.00 | 0.00 | 0.00 | 90 | 1015.4 |
| 20260508022518 | 42 | 0.0 | 0.0 | 0.00 | 0.00 | 0.00 | 89 | 1015.5 | |
| 20260508021517 | 42 | 59 | 0.0 | 1.0 | 0.00 | 0.00 | 0.00 | 89 | 1015.5 |
| 20260508020537 | 42 | 0.0 | 0.0 | 0.00 | 0.00 | 0.00 | 89 | 1015.5 | |
| 20260508015515 | 42 | 0.0 | 0.0 | 0.00 | 0.00 | 0.00 | 89 | 1015.5 | |
| 20260508014536 | 43 | 59 | 0.0 | 1.0 | 0.00 | 0.00 | 0.00 | 89 | 1015.5 |
| 20260508013516 | 43 | 0.0 | 0.0 | 0.00 | 0.00 | 0.00 | 89 | 1015.4 | |
| 20260508012515 | 44 | 0.0 | 0.0 | 0.00 | 0.00 | 0.00 | 89 | 1015.4 | |
| 20260508011516 | 44 | 0.0 | 0.0 | 0.00 | 0.00 | 0.00 | 88 | 1015.4 | |
| 20260508010516 | 44 | 0.0 | 0.0 | 0.00 | 0.00 | 0.00 | 88 | 1015.6 | |
| 20260508005538 | 45 | 0.0 | 0.0 | 0.00 | 0.00 | 0.00 | 88 | 1015.6 | |
| 20260508004515 | 45 | 0.0 | 0.0 | 0.00 | 0.00 | 0.00 | 88 | 1015.6 | |
| 20260508003515 | 46 | 59 | 1.0 | 2.0 | 0.00 | 0.00 | 0.00 | 88 | 1015.8 |
| 20260508002515 | 46 | 59 | 0.0 | 1.0 | 0.00 | 0.00 | 0.00 | 87 | 1015.9 |
| 20260508001516 | 46 | 59 | 0.0 | 1.0 | 0.00 | 0.00 | 0.00 | 86 | 1015.9 |
| 20260508000517 | 47 | 0.0 | 0.0 | 0.00 | 0.00 | 0.00 | 86 | 1015.9 | |
| 20260507235516 | 47 | 0.0 | 0.0 | 0.00 | 0.00 | 0.00 | 84 | 1016.0 | |
| 20260507234517 | 48 | 59 | 0.0 | 1.0 | 0.00 | 0.00 | 0.00 | 83 | 1016.0 |
| 20260507233516 | 48 | 59 | 1.0 | 2.0 | 0.00 | 0.00 | 0.00 | 82 | 1016.1 |
| 20260507232516 | 49 | 59 | 1.0 | 2.0 | 0.00 | 0.00 | 0.00 | 81 | 1016.3 |
| 20260507231537 | 50 | 59 | 1.0 | 2.0 | 0.00 | 0.00 | 0.00 | 80 | 1016.4 |
| 20260507230516 | 51 | 59 | 2.0 | 3.0 | 0.00 | 0.00 | 0.00 | 79 | 1016.4 |
| 20260507225516 | 51 | 60 | 2.0 | 4.0 | 0.00 | 0.00 | 0.00 | 79 | 1016.5 |
| 20260507224516 | 51 | 60 | 1.0 | 2.0 | 0.00 | 0.00 | 0.00 | 79 | 1016.7 |
| 20260507223517 | 52 | 0.0 | 0.0 | 0.00 | 0.00 | 0.00 | 79 | 1016.7 | |
| 20260507222517 | 51 | 0.0 | 0.0 | 0.00 | 0.00 | 0.00 | 79 | 1016.7 | |
| 20260507221515 | 51 | 60 | 1.0 | 3.0 | 0.00 | 0.00 | 0.00 | 79 | 1016.7 |
| 20260507220517 | 51 | 59 | 0.0 | 1.0 | 0.00 | 0.00 | 0.00 | 80 | 1016.5 |
| 20260507215515 | 51 | 57 | 2.0 | 3.0 | 0.00 | 0.00 | 0.00 | 80 | 1016.4 |
| 20260507214517 | 51 | 45 | 1.0 | 2.0 | 0.00 | 0.00 | 0.00 | 82 | 1016.4 |
| 20260507213537 | 52 | 0.0 | 0.0 | 0.00 | 0.00 | 0.00 | 84 | 1016.4 | |
| 20260507212520 | 52 | 0.0 | 0.0 | 0.00 | 0.00 | 0.00 | 83 | 1016.4 | |
| 20260507211515 | 52 | 0.0 | 0.0 | 0.00 | 0.00 | 0.00 | 82 | 1016.4 | |
| 20260507210515 | 52 | 0.0 | 0.0 | 0.00 | 0.00 | 0.00 | 82 | 1016.5 | |
| 20260507205536 | 52 | 0.0 | 0.0 | 0.00 | 0.00 | 0.00 | 82 | 1016.4 | |
| 20260507204515 | 52 | 0.0 | 0.0 | 0.00 | 0.00 | 0.00 | 80 | 1016.3 | |
| 20260507203517 | 52 | 0.0 | 0.0 | 0.00 | 0.01 | 0.00 | 79 | 1016.2 | |
| 20260507202515 | 52 | 44 | 0.0 | 2.0 | 0.00 | 0.02 | 0.00 | 78 | 1016.1 |
| 20260507201517 | 52 | 44 | 2.0 | 3.0 | 0.00 | 0.02 | 0.00 | 78 | 1016.0 |
| 20260507200516 | 52 | 48 | 2.0 | 3.0 | 0.00 | 0.02 | 0.00 | 78 | 1016.0 |
| 20260507195515 | 52 | 49 | 2.0 | 3.0 | 0.00 | 0.02 | 0.00 | 78 | 1015.9 |
| 20260507194516 | 53 | 50 | 2.0 | 3.0 | 0.00 | 0.02 | 0.00 | 78 | 1015.9 |
| 20260507193515 | 53 | 26 | 3.0 | 5.0 | 0.00 | 0.02 | 0.00 | 77 | 1015.9 |
| 20260507192516 | 53 | 24 | 3.0 | 5.0 | 0.00 | 0.02 | 0.00 | 77 | 1015.8 |
| 20260507191516 | 53 | 34 | 3.0 | 6.0 | 0.00 | 0.03 | 0.00 | 77 | 1015.6 |
| 20260507190518 | 53 | 15 | 4.0 | 9.0 | 0.00 | 0.03 | 0.00 | 77 | 1015.6 |
| 20260507185515 | 54 | 27 | 4.0 | 9.0 | 0.00 | 0.03 | 0.00 | 77 | 1015.4 |
| 20260507184518 | 54 | 32 | 4.0 | 7.0 | 0.00 | 0.03 | 0.00 | 76 | 1015.2 |
| 20260507183558 | 55 | 25 | 3.0 | 4.0 | 0.00 | 0.03 | 0.00 | 75 | 1015.1 |
| 20260507182538 | 55 | 33 | 2.0 | 5.0 | 0.00 | 0.03 | 0.00 | 75 | 1015.0 |
| 20260507181516 | 55 | 9 | 3.0 | 5.0 | 0.00 | 0.03 | 0.00 | 74 | 1014.9 |
| 20260507180516 | 55 | 5 | 1.0 | 2.0 | 0.00 | 0.03 | 0.00 | 73 | 1014.7 |
| 20260507175517 | 55 | 351 | 3.0 | 5.0 | 0.00 | 0.03 | 0.00 | 73 | 1014.5 |
| 20260507174516 | 56 | 335 | 4.0 | 8.0 | 0.00 | 0.03 | 0.00 | 72 | 1014.4 |
| 20260507173515 | 56 | 320 | 4.0 | 8.0 | 0.00 | 0.04 | 0.00 | 72 | 1014.4 |
| 20260507172516 | 56 | 358 | 3.0 | 7.0 | 0.00 | 0.04 | 0.00 | 71 | 1014.4 |
| 20260507171515 | 56 | 0 | 2.0 | 5.0 | 0.00 | 0.05 | 0.00 | 71 | 1014.4 |
| 20260507170517 | 56 | 1 | 4.0 | 7.0 | 0.00 | 0.05 | 0.00 | 71 | 1014.3 |
| 20260507165515 | 57 | 7 | 3.0 | 5.0 | 0.00 | 0.05 | 0.00 | 71 | 1014.1 |
| 20260507164517 | 57 | 353 | 6.0 | 10.0 | 0.00 | 0.06 | 0.00 | 71 | 1014.1 |
| 20260507163516 | 57 | 15 | 4.0 | 7.0 | 0.00 | 0.06 | 0.00 | 71 | 1014.1 |
| 20260507162515 | 57 | 327 | 5.0 | 10.0 | 0.00 | 0.06 | 0.00 | 71 | 1014.1 |
| 20260507161516 | 57 | 351 | 5.0 | 10.0 | 0.00 | 0.06 | 0.00 | 70 | 1013.9 |
| 20260507160515 | 58 | 345 | 6.0 | 11.0 | 0.00 | 0.06 | 0.00 | 69 | 1013.9 |
| 20260507155520 | 58 | 353 | 4.0 | 10.0 | 0.00 | 0.06 | 0.00 | 69 | 1013.7 |
| 20260507154537 | 58 | 349 | 7.0 | 12.0 | 0.00 | 0.06 | 0.00 | 69 | 1013.9 |
| 20260507153517 | 58 | 333 | 5.0 | 13.0 | 0.00 | 0.06 | 0.00 | 69 | 1013.8 |
| 20260507152515 | 58 | 307 | 5.0 | 11.0 | 0.00 | 0.06 | 0.00 | 69 | 1013.7 |
| 20260507151518 | 58 | 310 | 6.0 | 12.0 | 0.00 | 0.14 | 0.00 | 69 | 1013.7 |
| 20260507150516 | 58 | 344 | 6.0 | 12.0 | 0.00 | 0.22 | 0.00 | 69 | 1013.6 |
| 20260507145516 | 58 | 321 | 6.0 | 11.0 | 0.00 | 0.25 | 0.00 | 69 | 1013.6 |
| 20260507144516 | 59 | 322 | 5.0 | 12.0 | 0.00 | 0.26 | 0.00 | 68 | 1013.6 |
| 20260507143516 | 58 | 328 | 6.0 | 10.0 | 0.00 | 0.26 | 0.00 | 68 | 1013.6 |
| 20260507142517 | 59 | 301 | 7.0 | 11.0 | 0.00 | 0.26 | 0.00 | 67 | 1013.7 |
| 20260507141535 | 59 | 328 | 5.0 | 9.0 | 0.00 | 0.26 | 0.00 | 66 | 1013.6 |
| 20260507140537 | 60 | 300 | 5.0 | 11.0 | 0.00 | 0.26 | 0.00 | 66 | 1013.6 |
| 20260507135516 | 58 | 319 | 3.0 | 10.0 | 0.00 | 0.26 | 0.00 | 67 | 1013.7 |
| 20260507134516 | 59 | 300 | 7.0 | 13.0 | 0.00 | 0.26 | 0.00 | 66 | 1013.8 |
| 20260507133517 | 59 | 318 | 7.0 | 11.0 | 0.00 | 0.26 | 0.00 | 69 | 1013.8 |
| 20260507132516 | 59 | 333 | 6.0 | 12.0 | 0.00 | 0.26 | 0.00 | 67 | 1013.7 |
| 20260507131535 | 61 | 317 | 7.0 | 15.0 | 0.00 | 0.26 | 0.00 | 67 | 1013.6 |
| 20260507130516 | 58 | 301 | 7.0 | 12.0 | 0.00 | 0.26 | 0.00 | 68 | 1013.7 |
| 20260507125515 | 61 | 261 | 8.0 | 15.0 | 0.00 | 0.26 | 0.00 | 65 | 1013.7 |
| 20260507124516 | 60 | 264 | 7.0 | 15.0 | 0.00 | 0.26 | 0.00 | 65 | 1013.5 |
| 20260507123515 | 61 | 271 | 7.0 | 13.0 | 0.00 | 0.26 | 0.00 | 63 | 1013.5 |
| 20260507122516 | 61 | 265 | 7.0 | 13.0 | 0.00 | 0.26 | 0.00 | 65 | 1013.5 |
| 20260507121516 | 60 | 288 | 11.0 | 19.0 | 0.00 | 0.26 | 0.00 | 64 | 1013.5 |
| 20260507120535 | 60 | 273 | 6.0 | 14.0 | 0.00 | 0.26 | 0.00 | 65 | 1013.7 |
| 20260507115538 | 59 | 250 | 7.0 | 14.0 | 0.00 | 0.26 | 0.00 | 67 | 1013.7 |
| 20260507114536 | 59 | 269 | 8.0 | 16.0 | 0.00 | 0.26 | 0.00 | 68 | 1013.7 |
| 20260507113516 | 58 | 240 | 5.0 | 11.0 | 0.00 | 0.26 | 0.00 | 69 | 1013.8 |
| 20260507112515 | 58 | 264 | 7.0 | 16.0 | 0.00 | 0.26 | 0.00 | 69 | 1013.7 |
| 20260507111517 | 58 | 263 | 7.0 | 14.0 | 0.00 | 0.26 | 0.00 | 70 | 1013.7 |
| 20260507110515 | 58 | 259 | 7.0 | 13.0 | 0.00 | 0.26 | 0.00 | 68 | 1013.7 |
| 20260507105517 | 58 | 253 | 7.0 | 16.0 | 0.00 | 0.26 | 0.00 | 71 | 1013.7 |
| 20260507104515 | 58 | 266 | 6.0 | 12.0 | 0.00 | 0.26 | 0.00 | 70 | 1013.8 |
| 20260507103517 | 56 | 250 | 7.0 | 14.0 | 0.00 | 0.26 | 0.00 | 71 | 1013.8 |
| 20260507102517 | 58 | 259 | 7.0 | 14.0 | 0.00 | 0.26 | 0.00 | 70 | 1013.7 |
| 20260507101515 | 58 | 237 | 9.0 | 18.0 | 0.00 | 0.26 | 0.00 | 71 | 1013.7 |
| 20260507100537 | 57 | 238 | 9.0 | 18.0 | 0.00 | 0.26 | 0.00 | 73 | 1013.7 |
| 20260507095515 | 56 | 251 | 6.0 | 12.0 | 0.00 | 0.26 | 0.00 | 75 | 1013.6 |
| 20260507094517 | 55 | 259 | 7.0 | 13.0 | 0.00 | 0.26 | 0.00 | 75 | 1013.6 |
| 20260507093515 | 55 | 242 | 5.0 | 11.0 | 0.00 | 0.26 | 0.00 | 74 | 1013.5 |
| 20260507092536 | 55 | 231 | 5.0 | 9.0 | 0.00 | 0.26 | 0.00 | 74 | 1013.4 |
| 20260507091537 | 55 | 238 | 4.0 | 11.0 | 0.00 | 0.26 | 0.00 | 73 | 1013.4 |
| 20260507090515 | 56 | 238 | 5.0 | 11.0 | 0.00 | 0.26 | 0.00 | 72 | 1013.3 |
| 20260507085517 | 57 | 222 | 9.0 | 16.0 | 0.00 | 0.26 | 0.00 | 72 | 1013.2 |
| 20260507084515 | 56 | 238 | 7.0 | 12.0 | 0.00 | 0.26 | 0.00 | 73 | 1013.0 |
| 20260507083515 | 56 | 238 | 7.0 | 16.0 | 0.00 | 0.26 | 0.00 | 74 | 1013.1 |
| 20260507082515 | 56 | 227 | 6.0 | 12.0 | 0.00 | 0.26 | 0.00 | 72 | 1012.9 |
| 20260507081516 | 56 | 224 | 8.0 | 16.0 | 0.00 | 0.26 | 0.00 | 74 | 1012.8 |
| 20260507080517 | 55 | 242 | 7.0 | 15.0 | 0.00 | 0.26 | 0.00 | 75 | 1012.9 |
| 20260507075516 | 55 | 252 | 5.0 | 10.0 | 0.00 | 0.26 | 0.00 | 76 | 1012.9 |
| 20260507074516 | 54 | 237 | 5.0 | 10.0 | 0.00 | 0.26 | 0.00 | 78 | 1012.8 |
| 20260507073556 | 53 | 226 | 6.0 | 12.0 | 0.00 | 0.26 | 0.00 | 78 | 1012.8 |